Content
SEND FEEDBACK

Daily
Averages
Monthly
Summary
United States of America

ST. LOUIS - SAINT LOUIS UNIVERSITY, MISSOURI


Home > North America > United States > Missouri
Elevation: 177 meters     Latitude: 38 38N     Longitude: 090 14W

WEATHER
 
SELECT A DAY
Number of Records: 190,091;   Date Range: 1/1/95 - 11/27/14
 
SHARE

PRINT THIS DATA

[ ← Previous Day ]
WEATHER ALMANAC - 21 APRIL, 2013
[ Next Day → ]
[ °F ]   °C
Weather ElementAverageHighLow
Temperature11.2 °C17.2 °C (3:53 pm)5 °C (4:53 am)
Dewpoint2.2 °C5 °C (3:53 pm)-0.6 °C (2:53 am)
Humidity54.5 %67 % (4:53 am)44 % (2:53 pm)
Barometer1027.4 hPa1030.5 hPa (7:53 am)1024.7 hPa (7:53 pm)
Wind Speed14.6 km/h20.4 km/h (10:53 am)
Weather ElementAverage
Visibility16.1 km
Wind DirectionESE (122.7 °)

Weather ElementTotal
Precipitation---
Heating Degree Days7.2 (Base 18.3)
Growing Degree Days1.1 (Base 10)
Averaged from 22 records on 21 April, 2013
WEATHER CONDITIONS BREAKOUT
WIND DIRECTION BREAKOUT
WEATHER BY HOUR - 21 APRIL, 2013
[ °F ]   °C
Local TimeTemperatureDewpointHumidityBarometerVisibilityWind DirectionWind SpeedGust SpeedPrecipitationEventsConditions
1:53 AM6.7 °C0.6 °C65 %1027.8 hPa16.1 kmESE (120°)14.8 km/hClear
2:53 AM6.1 °C-0.6 °C62 %1028.1 hPa16.1 kmESE (120°)13 km/hClear
3:53 AM5.6 °C-0.6 °C65 %1028.4 hPa16.1 kmESE (120°)11.1 km/hClear
4:53 AM5 °C-0.6 °C67 %1028.8 hPa16.1 kmESE (110°)13 km/hClear
5:53 AM5 °C-0.6 °C67 %1029.5 hPa16.1 kmESE (110°)13 km/hPartly Cloudy
6:53 AM5 °C-0.6 °C67 %1030.1 hPa16.1 kmESE (110°)11.1 km/hScattered Clouds
7:53 AM6.7 °C-0.6 °C60 %1030.5 hPa16.1 kmESE (120°)14.8 km/hClear
9:53 AM9.4 °C1.1 °C56 %1030.5 hPa16.1 kmESE (120°)16.7 km/hClear
10:53 AM11.7 °C2.2 °C52 %1030.1 hPa16.1 kmESE (120°)20.4 km/hClear
11:53 AM13.3 °C2.8 °C49 %1029.5 hPa16.1 kmSE (140°)14.8 km/hMostly Cloudy
12:53 PM15 °C3.3 °C46 %1028.4 hPa16.1 kmSE (140°)14.8 km/hOvercast
1:53 PM16.1 °C4.4 °C46 %1027.8 hPa16.1 kmSE (140°)14.8 km/hClear
2:53 PM16.1 °C3.9 °C44 %1026.8 hPa16.1 kmSE (130°)16.7 km/hClear
3:53 PM17.2 °C5 °C45 %1025.7 hPa16.1 kmESE (120°)16.7 km/hScattered Clouds
4:53 PM16.7 °C4.4 °C44 %1025.1 hPa16.1 kmESE (120°)18.5 km/hScattered Clouds
5:53 PM16.1 °C4.4 °C46 %1025.1 hPa16.1 kmESE (120°)18.5 km/hClear
6:53 PM14.4 °C4.4 °C51 %1025.1 hPa16.1 kmESE (120°)14.8 km/hClear
7:53 PM13.9 °C3.9 °C51 %1024.7 hPa16.1 kmESE (110°)16.7 km/hClear
8:53 PM13.3 °C3.3 °C51 %1025.4 hPa16.1 kmESE (120°)13 km/hClear
9:53 PM12.2 °C2.8 °C53 %1025.7 hPa16.1 kmSE (130°)13 km/hClear
10:53 PM11.1 °C2.2 °C54 %1026.1 hPa16.1 kmSE (130°)11.1 km/hClear
11:53 PM10 °C2.2 °C59 %1025.4 hPa16.1 kmSE (130°)9.3 km/hClear
Hourly data recorded from KCPS, located 0 kilometers away from St. Louis - Saint Louis University, Missouri







STORIES FROM OUR PARTNERS